Wetbulb
33.67 35.21 34.32 32.95 33.36 34.18 32.58 32.71 28.74 32.55 33.42 37.38 39.88 40.69 41.76 42.97 41.54 41.53 40.81 41.50 40.18 38.85 38.32 37.72 34.58 34.09 33.45 33.29 31.66 30.93 28.30 26.23 24.37 23.35 22.39 21.63 20.06 18.46 17.73 17.36 17.20 17.12 15.98 15.38
29.94 32.55 32.44 30.30 33.16 33.84 33.36 33.99 34.45 34.69 33.41 39.96 41.10 41.86 41.46 41.60 42.17 41.66 41.79 42.94 42.45 38.52 35.92 34.75 33.83 34.14 32.55 32.14 30.60 29.55 26.55 24.27 23.47 21.07 20.06 18.69 17.10 16.64 15.78 15.32 14.99 14.52 13.55 13.23
27.24 31.85 30.84 27.27 31.52 33.17 34.27 36.30 35.41 31.23 36.73 41.22 40.36 40.81 41.61 42.52 43.09 43.06 42.38 42.48 38.97 37.95 36.54 34.42 33.82 32.73 31.14 31.35 29.75 27.10 24.34 22.42 20.48 19.52 17.93 16.55 15.84 15.06 14.69 14.40 14.57 13.64 13.55 13.56
28.77 31.11 21.36 31.61 37.88 36.86 34.92 36.75 38.21 37.95 39.40 41.20 41.63 43.06 43.70 43.48 41.69 42.06 42.82 42.84 41.13 35.87 36.81 35.85 33.80 30.19 29.14 28.96 27.17 24.86 22.81 21.11 18.95 17.78 16.35 14.76 14.41 14.12 14.09 14.15 13.52 13.06 12.91 13.43
27.29 26.99 30.76 32.21 35.99 34.45 33.15 33.15 38.85 37.96 39.73 40.88 41.97 41.63 41.61 44.71 44.69 44.22 43.72 43.91 42.84 38.04 37.12 36.39 31.78 29.38 28.16 25.88 23.67 21.83 20.18 18.50 17.42 17.14 15.07 14.00 13.13 12.77 13.40 13.24 12.79 12.71 12.68 11.08
30.68 26.01 23.34 32.44 37.87 40.38 39.61 29.07 39.23 40.20 39.64 39.66 40.08 33.99 38.11 43.76 43.64 39.55 39.81 39.32 37.88 36.11 35.24 31.84 28.08 27.60 25.62 22.67 20.80 19.82 19.22 18.06 17.03 16.40 14.09 12.85 13.05 12.35 13.12 12.98 12.01 12.36 12.02 12.19
29.64 27.80 30.45 36.12 38.48 37.66 26.75 30.89 40.57 41.17 40.89 40.24 37.41 39.32 42.03 40.60 37.96 37.23 37.45 37.26 34.61 32.74 32.10 29.69 26.74 25.49 23.27 20.75 19.32 20.50 18.92 16.62 14.86 14.32 12.75 13.13 11.18 11.50 10.98 10.58 11.24 10.90 10.65 11.38
28.78 25.84 23.24 36.29 35.70 31.87 34.83 38.50 37.37 36.74 37.85 37.67 39.19 40.30 39.37 38.29 36.21 35.22 34.89 30.94 29.99 29.47 28.27 26.33 25.10 24.44 21.65 19.23 20.32 18.69 16.32 13.49 12.69 12.05 11.39 11.03 10.17 8.76 7.61 8.98 8.29 7.94 9.42 11.36
23.55 25.27 33.47 35.54 31.45 32.52 37.74 33.36 33.95 34.93 35.72 36.02 35.88 37.12 37.57 37.53 36.87 35.79 34.04 31.81 27.84 25.35 23.24 23.01 22.22 23.23 20.58 19.99 18.03 15.35 12.78 11.10 8.44 8.44 7.54 7.67 7.20 5.90 6.63 7.45 8.94 9.55 10.74 11.70
22.07 29.75 27.40 28.44 32.03 34.20 33.71 30.75 31.43 31.81 32.18 34.32 34.01 35.51 34.79 35.50 35.89 34.90 29.19 30.30 21.74 20.54 19.33 18.24 18.20 20.58 19.94 18.27 16.06 12.27 9.97 8.22 6.71 5.93 4.74 5.50 7.93 8.01 8.39 7.68 9.43 10.43 11.21 10.68
19.01 24.14 26.65 28.78 30.94 30.84 30.36 29.71 28.62 30.43 31.44 31.96 32.51 32.72 34.33 35.78 36.24 36.33 33.45 25.20 21.96 22.83 23.37 23.84 19.69 19.84 18.48 15.44 13.15 10.81 8.91 7.02 6.34 5.86 5.66 6.04 8.40 9.09 10.46 11.46 11.57 10.25 9.85 9.26
16.51 25.17 24.70 25.27 27.23 28.83 22.96 22.33 24.11 26.77 26.53 27.70 29.38 29.95 31.88 32.26 32.63 32.58 33.32 31.61 23.53 23.36 23.21 22.69 19.52 18.87 15.29 13.34 12.24 10.31 9.41 6.86 5.67 5.12 6.18 7.30 7.73 9.66 15.11 14.17 16.54 16.35 15.66 11.62
22.99 18.32 19.93 23.19 24.40 23.48 19.44 19.89 21.93 19.42 20.37 20.58 23.92 26.80 28.60 29.71 31.48 32.55 32.59 33.02 33.25 23.95 23.88 23.00 18.34 18.69 14.12 12.17 11.97 10.85 10.61 8.64 6.94 6.95 7.15 6.82 6.29 6.44 7.20 12.40 15.70 15.53 14.51 14.37
18.89 15.57 16.55 18.14 15.15 17.04 17.96 17.39 17.23 16.05 16.91 18.43 19.37 20.18 21.67 22.70 26.93 28.83 29.97 31.29 32.61 27.31 25.70 21.00 18.51 19.01 14.62 12.17 11.91 10.70 11.04 9.14 8.02 7.74 7.56 7.13 6.74 6.30 6.06 4.97 5.09 6.48 11.57 11.99
13.96 14.25 13.73 14.70 15.40 14.31 14.81 14.28 10.85 10.93 12.40 12.11 13.23 12.76 13.67 13.91 15.58 18.88 22.62 24.96 26.87 29.32 25.78 17.61 16.64 13.95 11.59 12.24 11.87 11.15 9.69 8.21 8.44 7.68 7.55 7.92 8.31 7.87 6.70 5.79 4.60 2.92 3.04 9.22
10.74 9.66 10.89 8.96 8.74 8.92 8.76 7.71 6.23 7.26 8.12 8.27 7.48 7.98 9.26 10.17 10.99 12.81 15.90 19.24 21.42 23.69 26.18 18.10 16.50 14.79 10.44 11.87 11.71 11.39 9.72 8.43 8.10 6.50 5.50 4.72 4.99 4.41 4.34 3.96 3.02 2.25 1.46 1.46
3.01 1.99 2.47 1.92 3.69 4.29 3.97 5.62 5.88 5.33 4.34 3.57 3.38 4.76 5.02 6.31 7.88 10.06 13.18 17.24 22.88 28.46 30.30 20.43 16.62 9.76 10.95 12.54 10.74 9.68 8.38 6.72 6.58 4.92 4.02 3.57 3.31 3.11 3.11 2.18 1.05 -0.26 -1.08 -0.27
3.60 3.14 3.81 3.68 2.27 1.93 2.47 2.54 2.14 1.89 1.23 2.37 3.28 3.80 4.43 6.91 9.65 13.25 16.02 17.93 21.85 20.26 16.90 15.79 9.62 9.99 10.91 10.54 10.96 8.08 5.20 3.14 3.65 2.99 3.07 2.97 2.56 2.22 1.47 0.49 -0.70 -1.32 -2.60 0.68
0.09 -0.39 0.65 1.10 0.90 0.39 0.16 -0.34 -0.35 1.02 1.48 2.09 2.07 4.21 6.43 9.26 11.07 13.92 17.92 18.26 13.67 8.04 2.17 6.36 12.59 8.69 8.86 8.64 6.44 5.44 3.84 2.92 2.18 1.70 1.77 1.13 -0.11 -0.57 -1.40 -1.98 -3.05 -4.06 -5.16 -3.74
-4.09 -2.71 -2.94 -2.52 -0.76 -1.33 -2.16 -1.09 -0.56 -0.32 0.45 2.56 3.09 4.11 4.89 6.69 7.91 5.31 1.97 -1.25 2.20 1.47 4.90 7.70 7.02 6.13 5.39 7.69 6.91 4.13 3.01 1.92 0.62 -0.73 -0.65 -1.84 -2.72 -3.28 -2.99 -3.98 -5.79 -8.57 -9.40 -12.63
-7.17 -5.84 -4.09 -3.41 -2.96 -1.93 -1.61 -1.15 -1.06 -1.68 1.19 2.26 4.14 4.69 4.52 -0.13 -0.53 1.99 -0.49 -2.68 0.82 4.50 5.78 5.06 4.15 4.76 3.99 3.73 3.76 2.58 1.51 -0.40 -1.21 -1.74 -2.84 -3.29 -4.18 -5.35 -5.79 -7.20 -7.96 -8.27 -11.41 -11.49
-6.13 -5.69 -4.89 -3.95 -3.82 -3.33 -2.35 -2.29 -0.43 0.58 -0.59 0.91 4.20 2.65 1.23 -0.08 -0.87 -1.92 -0.08 -0.60 1.94 3.52 3.10 2.85 1.81 3.01 3.26 4.11 2.06 0.98 0.27 -0.53 -1.49 -2.07 -3.43 -4.03 -4.71 -5.91 -7.32 -7.47 -9.27 -10.44 -11.58 -14.56
-5.95 -5.54 -4.12 -3.79 -3.41 -2.52 -1.84 -0.31 0.93 0.84 -1.00 -1.81 -1.51 -0.50 -1.98 -0.71 0.71 -3.22 -4.57 1.05 2.35 2.07 0.85 1.71 3.07 3.49 3.04 1.50 0.68 -0.26 -1.36 -2.12 -2.87 -3.45 -3.75 -4.10 -5.29 -6.49 -7.52 -9.03 -10.17 -10.51 -13.94 -15.36
-6.29 -4.52 -3.27 -1.67 -1.67 -2.74 -4.55 -1.96 0.63 0.82 -0.49 -1.38 -1.48 -0.37 -0.08 -2.18 -1.45 0.87 1.39 1.26 1.58 1.98 1.80 3.05 4.90 5.72 1.41 -0.49 -1.43 -2.33 -2.74 -3.63 -4.33 -4.87 -5.62 -5.76 -6.94 -7.80 -9.74 -11.42 -11.61 -13.63 -17.90 -19.55
-4.45 -2.70 -2.66 -3.57 -4.41 -5.14 -3.86 -2.17 -1.10 -1.71 -1.25 -2.48 -2.15 -1.01 -0.39 0.49 -2.03 -0.52 1.12 1.66 4.25 1.26 0.75 3.18 4.28 1.63 -1.70 -2.50 -3.26 -4.30 -5.05 -5.80 -6.84 -6.93 -7.43 -8.23 -9.88 -11.19 -12.81 -12.75 -13.87 -21.66 -24.05 -23.90
-2.99 -3.30 -2.76 -2.90 -3.78 -3.72 -3.84 -2.88 -3.84 -3.61 -3.93 -4.61 -3.39 -1.65 -0.57 0.41 0.68 0.46 -0.88 -2.55 -2.68 -2.36 -2.89 -2.55 -2.87 -3.32 -3.83 -4.39 -5.35 -6.22 -6.43 -6.45 -6.67 -7.09 -7.79 -9.28 -10.32 -10.60 -12.00 -13.06 -16.86 -19.32 -22.32 -22.04
-2.12 -1.11 -2.43 -3.07 -2.65 -3.10 -3.28 -4.29 -4.69 -4.88 -3.64 -3.34 -4.12 -1.79 -1.55 -2.79 -2.83 -2.98 -3.24 -3.74 -3.81 -4.05 -4.25 -4.12 -3.99 -4.39 -4.97 -5.54 -5.92 -5.97 -6.11 -6.30 -6.55 -7.04 -7.98 -9.05 -9.47 -10.30 -10.27 -12.57 -14.19 -15.02 -13.42 -13.18
MSLP
1008.05 1007.62 1006.47 1005.94 1005.29 1004.90 1004.50 1003.69 1002.73 1000.76 999.27 998.55 996.77 996.52 996.00 995.45 995.97 996.63 997.14 997.94 998.27 998.76 998.92 999.19 1000.13 1000.67 1001.48 1002.18 1003.25 1004.45 1005.77 1007.01 1008.26 1009.51 1010.42 1011.46 1012.69 1013.70 1014.70 1015.57 1016.40 1017.12 1017.68 1018.47
1007.11 1006.81 1006.32 1005.07 1004.23 1003.84 1002.34 1001.91 1001.11 999.88 998.96 996.53 996.33 995.84 994.77 994.56 994.52 995.52 995.93 996.19 996.68 997.28 997.68 998.30 998.94 999.38 1000.13 1001.24 1002.24 1003.41 1004.91 1006.43 1007.79 1009.16 1010.27 1011.27 1012.32 1013.26 1014.27 1015.15 1015.93 1016.80 1017.45 1018.15
1004.92 1004.95 1004.78 1003.82 1003.04 1001.34 1001.04 999.86 998.83 998.25 995.83 994.96 994.96 994.58 993.53 993.08 993.88 994.31 994.32 994.67 995.47 995.95 996.43 997.05 997.74 998.29 999.19 1000.17 1001.70 1003.16 1004.36 1005.66 1007.03 1008.44 1009.69 1010.94 1012.13 1013.24 1014.17 1014.92 1015.81 1016.64 1017.09 1017.77
1003.10 1003.76 1000.89 999.51 999.89 1000.08 998.45 997.40 996.53 995.61 994.76 994.08 993.57 992.03 992.79 993.49 993.63 993.25 993.40 993.88 994.29 994.89 995.51 995.77 996.24 997.39 998.76 1000.13 1001.55 1002.94 1004.31 1005.37 1006.61 1008.10 1009.42 1010.39 1011.53 1012.50 1013.67 1014.57 1015.27 1015.90 1016.61 1016.98
1002.06 1000.33 998.54 997.96 997.58 997.06 996.59 994.35 994.79 994.88 993.89 992.62 992.69 993.03 992.67 992.54 992.35 992.68 993.04 993.07 993.43 993.57 994.22 994.83 995.48 996.64 998.11 999.84 1001.23 1002.76 1003.79 1004.75 1005.90 1007.15 1008.72 1010.22 1011.39 1012.12 1012.88 1013.79 1014.56 1015.18 1015.65 1016.57
1000.66 998.41 996.73 996.01 996.43 995.98 994.77 993.52 994.78 992.88 991.65 992.45 992.69 993.07 991.81 991.73 991.71 992.06 992.07 992.34 992.63 993.09 993.81 994.62 995.65 996.69 998.04 999.38 1000.63 1001.65 1002.30 1003.47 1005.18 1006.42 1007.49 1008.89 1009.94 1011.45 1012.20 1012.94 1013.55 1014.50 1015.19 1015.43
998.60 997.17 996.44 996.22 995.80 995.87 995.90 993.61 993.90 993.96 993.12 992.74 992.89 992.23 991.33 991.51 991.34 991.08 991.28 991.74 992.18 992.97 993.81 994.44 995.64 996.88 998.06 998.93 999.43 1000.24 1002.13 1003.67 1004.86 1006.04 1007.05 1008.25 1009.79 1010.56 1011.75 1012.58 1013.10 1014.01 1014.52 1015.19
999.68 998.51 997.56 997.65 996.36 997.57 997.93 996.70 997.00 996.88 996.88 996.30 995.63 994.79 994.05 993.78 993.76 992.97 992.92 992.95 993.43 994.19 994.88 995.46 996.05 997.31 998.10 998.33 999.18 1000.42 1002.10 1003.64 1004.98 1005.91 1006.94 1007.83 1009.24 1010.38 1011.47 1012.02 1013.16 1013.95 1014.50 1014.59
1002.51 1000.11 999.45 999.03 999.64 999.59 999.74 998.61 998.43 998.14 997.77 997.41 996.69 996.25 995.97 995.71 995.42 994.61 994.38 994.62 994.59 995.09 995.53 996.03 996.49 996.99 997.69 998.21 999.43 1000.58 1002.10 1003.28 1004.75 1006.15 1006.42 1007.54 1008.66 1009.64 1011.02 1011.99 1012.56 1013.38 1013.64 1013.73
1003.07 1000.71 1000.30 999.19 997.75 998.21 999.82 999.58 999.15 998.56 998.76 998.24 996.83 996.42 995.97 995.13 994.50 994.25 994.44 994.84 995.04 995.56 995.83 996.06 996.19 996.91 997.69 998.63 999.92 1001.41 1002.55 1003.54 1004.98 1005.90 1006.55 1007.22 1008.02 1009.28 1009.60 1010.47 1011.62 1012.51 1013.08 1013.47
1002.44 1002.09 1000.66 1000.68 1000.22 1000.28 999.93 1000.45 999.09 999.57 999.58 997.41 996.64 996.67 997.12 995.67 994.29 993.75 993.91 994.25 994.27 994.82 994.83 994.73 995.40 996.12 997.21 998.40 999.52 1001.38 1002.42 1003.14 1004.45 1005.80 1006.65 1006.94 1007.32 1008.03 1008.38 1009.69 1010.21 1011.15 1011.97 1013.10
1002.94 1002.71 1002.41 1001.69 1001.53 1001.53 1001.39 1000.55 1001.13 1001.07 998.91 998.26 997.62 997.36 996.66 996.16 994.03 993.62 992.92 993.45 993.20 993.54 993.86 993.64 994.32 994.86 995.85 996.90 998.42 1000.18 1001.34 1002.73 1003.27 1004.88 1005.68 1005.52 1006.35 1007.91 1008.73 1009.24 1009.85 1010.55 1011.56 1012.57
1004.13 1004.72 1004.03 1003.32 1002.67 1002.34 1002.94 1002.74 1002.29 1001.37 1000.04 998.79 998.48 998.53 997.66 995.64 993.75 993.48 993.01 992.60 992.06 992.03 992.49 992.85 993.25 994.01 994.41 995.54 996.78 998.07 999.58 1001.38 1002.32 1003.74 1005.66 1005.94 1006.01 1006.73 1008.33 1009.49 1009.95 1010.37 1011.14 1011.78
1006.15 1005.98 1004.85 1004.50 1004.97 1004.37 1004.00 1003.56 1002.96 1001.95 1001.29 1001.08 1000.33 999.30 997.95 995.66 994.80 993.40 992.86 991.77 991.32 990.78 991.55 992.20 992.24 993.00 993.80 995.15 996.56 997.61 998.60 999.38 1001.02 1001.89 1003.13 1004.19 1006.18 1006.62 1008.01 1008.24 1009.59 1010.28 1011.16 1011.39
1007.43 1007.96 1007.82 1006.84 1006.18 1005.57 1005.16 1004.64 1003.65 1002.40 1001.41 1000.24 999.68 998.82 997.73 997.03 995.78 994.57 993.02 992.04 991.17 990.71 990.75 990.54 991.11 991.95 993.14 994.30 995.19 996.24 998.27 998.82 998.32 1001.42 1002.54 1003.62 1005.06 1006.55 1007.54 1008.30 1009.76 1010.22 1011.30 1011.52
1008.09 1008.31 1007.64 1007.51 1006.95 1005.97 1005.67 1005.15 1004.77 1002.98 1002.04 1000.82 999.80 998.81 998.33 997.43 995.98 994.39 993.18 992.14 991.29 989.71 988.99 989.70 990.16 991.24 992.28 993.20 994.39 996.14 996.95 998.17 999.34 999.56 1001.39 1003.29 1004.89 1006.42 1007.77 1008.27 1009.52 1010.32 1011.01 1011.46
1009.87 1008.54 1008.42 1007.77 1007.45 1006.20 1005.57 1005.66 1005.27 1004.12 1002.65 1001.83 1000.43 999.37 998.12 996.91 995.30 993.47 991.83 991.11 990.01 988.68 987.89 988.75 989.48 991.13 992.29 993.03 994.11 995.71 997.10 998.74 999.41 1000.84 1002.09 1002.87 1004.35 1005.96 1007.63 1008.52 1009.24 1010.55 1011.11 1011.09
1011.35 1010.85 1010.37 1009.60 1008.26 1006.83 1004.91 1005.45 1005.05 1004.31 1003.21 1001.88 1000.59 999.51 997.97 996.38 994.42 992.25 990.91 989.92 989.09 988.28 988.20 988.76 990.17 991.61 992.65 994.01 995.10 996.30 997.52 998.83 1000.18 1001.29 1002.83 1003.82 1004.63 1006.17 1007.60 1008.60 1009.56 1010.33 1010.90 1010.89
1011.62 1010.72 1009.99 1009.49 1008.78 1007.59 1006.24 1004.96 1004.49 1003.58 1002.57 1001.36 1000.09 998.53 997.25 995.80 994.19 992.09 990.13 989.36 989.09 989.51 990.65 990.58 991.16 992.31 993.36 994.43 995.49 996.77 997.89 999.34 1000.81 1002.17 1003.38 1004.62 1005.66 1006.55 1007.98 1009.12 1009.98 1010.37 1010.48 1011.63
1011.19 1010.62 1009.73 1008.60 1008.03 1007.32 1005.81 1005.04 1003.91 1002.77 1001.73 1000.34 999.04 997.63 996.37 995.28 994.17 993.30 992.47 991.69 991.56 991.67 991.88 991.88 992.57 993.43 994.42 995.29 995.99 996.95 998.08 999.84 1001.38 1002.86 1003.97 1005.37 1006.36 1007.26 1008.64 1009.64 1010.29 1010.69 1011.37 1012.80
1010.91 1009.89 1008.89 1007.97 1006.81 1006.13 1005.29 1004.29 1003.14 1002.00 1000.76 999.78 998.19 997.07 996.46 996.17 995.46 994.58 994.03 993.62 993.73 993.41 993.24 993.65 994.13 994.87 995.79 996.46 997.06 998.00 999.12 1000.60 1002.14 1003.45 1004.51 1006.07 1007.24 1008.19 1009.36 1009.82 1010.44 1011.60 1012.37 1012.74
1010.41 1009.31 1008.24 1007.30 1006.31 1005.13 1004.39 1003.52 1002.38 1001.33 1000.45 999.37 998.00 997.29 996.84 996.57 996.28 995.87 995.47 995.22 995.22 995.18 995.21 995.47 995.96 996.35 996.77 997.32 998.37 999.35 1000.47 1001.70 1003.11 1003.97 1005.50 1006.81 1007.52 1008.73 1009.47 1010.39 1011.55 1012.21 1012.67 1012.61
1009.84 1008.82 1007.69 1006.67 1005.69 1004.64 1003.77 1002.76 1001.78 1000.99 1000.35 999.76 998.95 998.18 997.80 997.39 996.99 996.91 996.72 996.82 996.60 996.73 996.92 997.19 997.47 997.59 998.01 998.86 999.63 1000.91 1001.92 1003.12 1004.14 1005.58 1006.61 1007.01 1007.99 1008.81 1010.11 1011.26 1011.90 1012.20 1012.53 1012.63
1009.14 1007.99 1006.95 1006.04 1005.24 1004.34 1003.37 1002.42 1001.59 1001.04 1000.63 1000.14 999.61 998.96 998.51 998.40 998.19 998.07 998.00 998.03 997.96 998.14 998.41 998.61 998.75 999.22 999.74 1000.45 1001.41 1002.47 1003.46 1004.53 1005.59 1006.39 1006.88 1007.70 1008.54 1009.61 1011.04 1011.76 1012.16 1012.41 1012.25 1012.30
1008.43 1007.41 1006.56 1005.80 1005.05 1004.29 1003.62 1002.78 1002.01 1001.49 1000.99 1000.61 1000.18 999.89 999.52 999.36 999.40 999.52 999.44 999.45 999.33 999.60 999.98 1000.32 1000.49 1000.80 1001.60 1002.56 1003.05 1003.90 1005.09 1005.91 1006.46 1006.99 1007.77 1008.61 1009.66 1010.75 1011.42 1011.79 1012.07 1012.15 1012.24 1012.64
1007.85 1007.08 1006.40 1005.82 1005.28 1004.75 1004.14 1003.37 1002.77 1002.36 1001.93 1001.58 1001.31 1001.05 1000.77 1000.59 1000.54 1000.62 1000.91 1001.13 1001.13 1001.43 1001.81 1002.15 1002.51 1003.05 1003.61 1004.16 1004.80 1005.59 1006.25 1006.73 1007.25 1008.04 1008.81 1009.63 1010.29 1010.80 1011.28 1011.60 1011.70 1011.97 1012.44 1012.59
1007.73 1007.05 1006.32 1005.79 1005.50 1005.11 1004.65 1004.20 1003.61 1003.21 1002.89 1002.61 1002.42 1002.32 1002.21 1002.32 1002.21 1002.27 1002.54 1002.70 1002.84 1003.12 1003.61 1003.99 1004.25 1004.66 1005.13 1005.62 1006.23 1006.79 1007.20 1007.69 1008.23 1008.77 1009.38 1009.84 1010.31 1010.71 1011.00 1011.38 1011.70 1012.13 1012.32 1012.18
Wind_Speed
24 25 25 23 24 25 23 19 22 25 29 28 32 24 24 22 13 14 12 12 12 11 11 13 10 13 13 15 16 16 16 15 15 12 12 11 10 9 9 8 7 6 6 5
25 32 32 30 29 25 32 31 32 34 30 35 29 26 33 28 28 19 17 19 17 12 11 11 14 16 15 14 16 17 17 15 14 14 12 12 12 12 10 9 8 7 6 6
19 23 27 26 34 38 35 32 30 31 38 38 34 33 34 33 24 24 16 16 10 11 11 10 12 13 15 15 14 16 16 15 15 15 15 14 12 12 10 10 9 9 7 7
19 16 25 17 22 32 38 35 34 34 37 37 33 36 28 12 14 21 20 21 15 9 9 10 8 9 9 12 15 16 16 16 16 16 15 14 14 12 10 9 10 9 7 6
15 20 24 4 25 26 23 34 34 30 32 35 29 24 24 26 23 22 19 21 17 9 8 8 10 12 15 14 15 16 17 18 18 18 17 15 13 13 12 10 9 8 7 6
19 22 25 16 22 25 29 21 13 25 29 26 21 14 19 23 21 12 13 12 10 6 6 8 8 13 16 16 17 19 20 19 17 17 18 17 16 14 10 9 10 7 7 7
24 21 13 4 16 9 17 21 21 23 25 23 16 13 17 13 11 8 9 11 4 6 8 8 11 14 14 16 21 16 15 15 16 16 16 15 13 11 11 9 9 7 7 6
15 20 29 16 9 15 16 17 21 21 20 20 20 16 14 18 16 10 9 4 2 3 3 5 9 11 13 17 12 14 16 16 15 15 11 12 14 11 10 9 8 6 5 5
7 7 9 9 12 18 10 13 13 14 17 16 17 19 17 16 12 11 11 8 3 4 4 5 7 10 12 11 14 15 16 16 15 13 12 13 13 13 10 8 7 6 6 5
15 2 25 32 28 14 15 14 14 10 12 15 17 18 16 16 16 8 6 8 5 6 7 9 8 9 6 11 14 15 15 15 14 13 13 12 9 9 8 9 8 7 5 5
23 21 22 15 15 20 23 18 16 18 15 13 13 15 14 16 13 10 7 5 6 10 11 14 11 12 9 14 17 16 14 14 14 10 12 12 9 9 9 7 8 7 6 4
18 21 20 23 20 18 16 17 15 14 18 17 17 20 20 19 15 14 16 10 8 11 11 12 14 15 16 19 20 18 17 14 13 11 11 12 12 10 12 13 14 12 11 7
19 13 14 15 12 13 17 20 17 19 19 21 20 18 21 20 17 18 17 17 14 13 17 12 14 16 17 19 20 21 18 17 14 14 11 10 9 12 12 10 14 13 11 10
10 14 10 8 12 22 18 19 20 20 17 14 17 17 16 17 19 18 16 14 14 9 12 13 14 17 16 18 19 18 17 24 14 13 13 12 10 10 9 11 10 8 10 9
10 10 12 19 16 19 17 16 21 21 21 22 18 19 18 19 19 20 21 20 19 19 14 12 14 16 18 20 20 21 16 14 17 14 11 12 11 10 9 10 8 8 5 8
17 12 10 12 18 20 18 18 18 22 22 23 23 23 21 21 22 22 22 20 18 18 17 13 14 12 18 20 20 16 16 21 15 14 14 13 11 10 9 8 8 7 6 4
12 14 16 20 16 23 23 18 17 20 24 22 24 24 25 23 23 23 22 18 18 21 16 15 14 13 16 18 19 13 12 12 18 12 11 12 11 10 8 8 8 6 5 4
10 14 17 18 21 23 26 20 19 20 21 24 24 23 24 23 23 26 24 21 20 5 4 8 12 14 14 15 14 11 12 13 11 12 11 10 10 9 9 8 8 7 6 3
12 17 18 20 19 20 23 23 21 21 21 21 22 21 21 21 22 23 22 13 1 7 4 11 17 15 15 15 16 12 13 14 13 11 10 13 10 9 8 7 6 6 6 5
16 16 19 20 18 18 21 19 21 20 19 19 20 20 18 15 12 9 9 9 7 6 9 13 13 13 14 17 18 12 15 14 13 12 10 9 9 9 7 8 6 5 5 2
17 18 19 19 19 19 17 17 18 19 18 18 18 15 10 8 9 8 7 5 5 5 9 13 10 10 9 13 13 13 13 13 12 11 10 9 9 8 7 6 6 5 4 3
16 17 18 19 18 19 16 16 16 12 13 13 10 7 5 5 6 8 8 5 5 9 8 8 9 13 13 17 12 12 12 13 10 10 9 8 8 8 7 6 5 4 3 2
16 17 17 17 17 17 16 13 11 9 9 9 9 7 6 6 4 4 7 6 6 10 8 9 15 19 19 12 12 12 12 12 11 9 8 8 8 7 6 5 4 4 3 2
15 15 16 15 14 12 13 13 11 8 7 8 9 9 6 5 7 6 8 12 16 13 10 11 16 19 17 10 11 11 10 10 9 8 9 11 8 7 5 4 4 2 2 3
14 13 12 11 10 8 12 12 8 9 8 9 10 9 10 7 6 6 7 9 17 13 12 17 20 19 11 10 10 11 9 8 8 8 8 7 7 6 4 4 3 3 2 1
11 8 7 8 7 7 8 7 6 7 7 7 8 7 7 7 8 9 10 13 12 14 11 10 10 10 9 10 10 9 8 8 8 7 7 6 6 5 4 3 3 2 2 3
8 8 6 6 6 6 6 7 6 7 7 6 8 8 9 9 10 11 12 10 11 11 10 9 9 10 9 9 9 8 7 7 8 6 5 5 4 4 3 3 2 3 3 3
Wind_Direction
238 245 260 262 259 273 272 256 251 269 267 264 270 276 268 272 273 269 281 261 236 225 214 205 197 194 193 192 183 177 175 176 178 165 157 148 143 137 132 141 150 153 155 170
235 241 251 260 265 260 252 255 255 252 258 261 258 267 271 272 269 282 264 264 260 235 220 209 198 197 192 187 180 172 173 172 164 157 151 147 145 147 146 146 152 156 168 185
242 236 243 248 242 249 256 250 243 250 249 254 261 254 256 266 284 277 268 260 243 233 223 212 204 193 187 181 160 167 168 164 161 159 157 155 149 151 160 163 162 175 181 196
252 246 229 226 228 232 243 248 249 248 251 257 257 258 264 271 264 274 278 286 270 229 228 221 201 176 144 152 161 165 167 164 161 163 161 154 156 160 156 160 169 173 186 193
243 238 259 222 217 221 228 240 244 257 257 251 261 262 270 264 257 264 269 271 268 231 219 206 172 156 151 155 159 164 173 172 169 164 160 161 162 162 161 161 165 170 164 185
241 249 251 237 235 245 258 260 241 240 247 256 254 251 251 259 261 246 230 240 248 201 183 164 160 150 154 162 167 182 181 174 168 166 162 164 164 166 160 159 158 157 179 182
239 244 250 237 270 303 244 263 268 263 262 265 255 242 258 261 255 231 223 234 186 169 187 181 155 153 167 169 192 180 166 166 164 165 161 157 153 151 153 154 143 165 172 196
258 266 266 4 303 248 335 357 2 356 350 344 342 344 3 351 339 329 292 321 188 203 213 153 154 164 178 194 167 159 159 160 164 159 152 147 149 140 143 141 147 160 180 195
309 330 321 338 333 312 307 331 337 327 316 315 316 323 329 325 322 323 330 306 278 226 182 173 172 184 188 186 162 156 160 159 156 152 145 149 147 143 144 152 151 169 179 179
324 311 311 316 317 0 0 337 324 325 305 301 305 305 293 300 292 271 237 247 199 176 196 207 191 197 195 154 155 155 160 157 156 153 149 149 143 154 151 148 162 168 180 170
283 283 299 301 324 325 327 329 354 339 318 323 326 310 295 300 298 296 269 230 185 207 217 226 186 191 166 159 156 166 164 159 159 156 160 153 151 162 146 155 159 165 158 173
285 298 302 311 325 329 346 337 328 317 327 323 319 304 299 287 293 294 298 286 221 221 224 216 195 187 170 167 167 167 166 169 165 161 166 160 147 136 152 152 160 167 168 169
303 349 309 301 324 344 334 314 322 319 312 312 303 291 291 288 294 289 287 286 277 222 226 223 197 199 180 174 173 174 170 166 158 156 168 151 142 144 150 156 162 161 163 175
14 355 331 354 318 311 313 314 315 308 298 293 295 295 303 311 304 300 286 284 279 243 232 209 198 203 179 171 176 176 171 165 164 158 158 147 153 150 154 150 163 162 171 163
353 332 290 290 298 301 306 316 314 306 311 309 312 308 309 302 297 294 295 295 298 288 246 198 193 192 174 175 174 170 171 172 152 154 146 146 144 146 150 145 158 145 155 157
313 311 300 308 301 303 310 317 308 303 309 309 309 307 303 300 294 287 283 282 281 277 270 213 209 186 172 172 171 167 165 158 157 141 140 136 137 140 144 143 144 147 150 145
333 328 329 308 308 307 306 306 302 302 303 302 300 302 303 299 293 288 287 284 273 272 253 205 204 162 172 170 162 157 149 144 139 130 138 137 136 138 144 142 138 139 147 165
308 288 290 290 299 303 302 305 301 297 294 296 295 296 293 294 293 294 289 287 283 273 128 151 133 150 155 155 154 141 138 132 132 128 130 130 128 132 136 137 141 148 143 134
292 292 291 290 291 289 292 298 299 296 296 293 290 293 292 296 294 293 289 283 229 113 48 116 136 137 144 142 136 136 131 127 122 121 122 121 118 120 125 132 138 134 117 121
298 291 290 290 292 290 292 292 295 297 296 293 297 294 299 303 310 348 12 38 24 105 129 133 129 130 133 138 130 125 122 123 124 121 122 120 125 122 126 132 132 115 109 179
300 297 299 301 300 299 294 297 300 296 299 301 293 295 311 3 355 358 9 37 34 89 106 110 114 118 116 122 114 114 115 118 120 123 122 124 124 120 127 120 112 133 147 190
301 304 304 303 304 303 304 302 293 305 307 315 336 353 345 1 20 33 32 57 70 77 93 93 101 113 114 108 107 107 109 109 116 111 115 125 121 123 117 119 130 138 157 129
302 302 301 305 305 305 308 308 311 311 324 334 340 347 8 359 29 54 73 45 75 76 83 95 108 102 100 97 97 97 101 104 101 108 116 110 110 110 113 129 142 141 151 137
301 304 307 309 308 311 324 327 330 345 355 355 360 5 28 44 58 53 63 77 92 91 93 98 94 89 86 84 91 95 94 98 105 108 101 100 101 101 112 127 134 159 116 95
306 308 310 315 322 333 329 328 346 356 13 19 24 28 44 51 70 78 79 86 86 80 79 80 79 76 78 82 86 88 91 96 100 100 99 101 108 122 131 133 140 131 121 190
315 318 319 330 341 336 338 342 7 13 18 29 31 31 43 54 65 69 64 67 67 69 65 65 67 71 75 78 82 87 94 98 96 98 109 116 123 126 136 141 132 147 201 225
329 333 343 356 0 358 358 7 15 28 26 38 51 39 49 57 65 68 68 66 67 69 69 67 68 74 79 82 86 89 90 94 102 107 111 118 125 130 136 145 160 189 220 242